Regional Weather Roundup
Issued by NWS

Home | Current Version | Previous Version | Text Only | Print | Product List | Glossary On
Versions: 1 2 3 4 5 6 7 8 9 10 11 12 13 14 15 16 17 18 19 20 21 22 23 24 25 26 27 28 29 30 31 32 33 34 35 36 37 38 39 40 41 42 43 44 45 46 47 48 49 50
000
ASUS45 KBOI 070210
RWRID
WEATHER ROUNDUP FOR IDAHO
NATIONAL WEATHER SERVICE BOISE ID
700 PM MST FRI MAR 06 2015

NOTE: "FAIR" INDICATES FEW OR NO CLOUDS BELOW 12000 FEET
WITH NO SIGNIFICANT WEATHER AND/OR OBSTRUCTIONS TO VISIBILITY

IDZ012-014-070300-
SOUTHWEST IDAHO


CITY           SKY/WX    TMP DP  RH WIND       PRES   REMARKS
BOISE          CLEAR     54  24  31 W3        30.32F
CALDWELL       CLEAR     55  23  28 CALM      30.34S
MOUNTAIN HOME  CLEAR     52  23  32 NW6       30.33S
$$

IDZ016-017-070300-
SOUTHCENTRAL IDAHO


CITY           SKY/WX    TMP DP  RH WIND       PRES   REMARKS
BURLEY         CLEAR     45  16  31 W3        30.34S
JEROME         CLEAR     49  18  29 W3        30.35S
TWIN FALLS     CLEAR     49  18  29 W3        30.35S
$$

IDZ019>023-070300-
SOUTHEAST IDAHO


CITY           SKY/WX    TMP DP  RH WIND       PRES   REMARKS
IDAHO FALLS    CLEAR     45  17  32 SW9       30.35S
POCATELLO      CLEAR     40  20  44 S7        30.36R
REXBURG        CLEAR     43  19  38 S6        30.34R
$$

IDZ006-010-011-018-031-032-070300-
CENTRAL IDAHO MOUNTAINS


CITY           SKY/WX    TMP DP  RH WIND       PRES   REMARKS
MCCALL         PTCLDY    45  20  36 NE3       30.34S
HAILEY         PTCLDY    46  23  39 SE7       30.38R
STANLEY          N/A     34  18  52 SE5       30.37S WCI  30
SALMON         CLEAR     43  18  36 S3        30.30R
CHALLIS        CLEAR     46  18  32 CALM      30.31S
$$

IDZ002-004-006-007-026-070300-
NORTHERN IDAHO


CITY           SKY/WX    TMP DP  RH WIND       PRES   REMARKS
LEWISTON       MOCLDY    54  30  40 CALM      30.31S
LOWELL           N/A     41  33  73 CALM      30.33R
COEUR D`ALENE  MOCLDY    50  27  40 CALM      30.29R
MULLAN PASS    CLOUDY    38  21  50 CALM      30.32F
$$



USA.gov is the U.S. government's official web portal to all federal, state and local government web resources and services.